Overview Statistics Trail Chart Weather Telemetry Raw packets
 

This is the latest recevied weather packets stored in our database for station/object OK2JCZ-6. If no packets are shown the sender has not sent any weather packets the latest 10 day(s).

<< 60 61 62 63 64 65 66 >>
Time Temp. Humidity Pressure Rain* Wind** Luminosity Snow
1788042550 13.33° C 64% 1016.9 hPa 0 mm - - -
1788041350 12.78° C 65% 1016.8 hPa 0 mm - - -
1788039250 13.33° C 67% 1017 hPa 0 mm - - -
1788037450 13.89° C 66% 1017 hPa 0 mm - - -
1788036850 13.33° C 65% 1017 hPa 0 mm - - -
1788035350 13.89° C 67% 1016.9 hPa 0 mm - - -
1788035050 13.89° C 66% 1016.8 hPa 0 mm - - -
1788034750 13.89° C 64% 1016.8 hPa 0 mm - - -
1788032650 14.44° C 61% 1016.8 hPa 0 mm - - -
1788031158 15° C 55% 1016.7 hPa 0 mm - - -
1788028450 16.11° C 49% 1016.5 hPa 0 mm - - -
1788028150 17.22° C 49% 1016.5 hPa 0 mm - - -
1788027550 18.33° C 46% 1016.4 hPa 0 mm - - -
1788027250 18.33° C 44% 1016.4 hPa 0 mm - - -
1788026950 18.89° C 42% 1016.3 hPa 0 mm - - -
1788025750 20.56° C 37% 1016.1 hPa 0 mm - - -
1788025450 20.56° C 37% 1016.1 hPa 0 mm - - -
1788025150 21.11° C 37% 1016.1 hPa 0 mm - - -
1788024850 21.11° C 36% 1016.1 hPa 0 mm - - -
1788023651 22.22° C 35% 1016 hPa 0 mm - - -
1788023050 22.78° C 34% 1016 hPa 0 mm - - -
1788022450 23.89° C 33% 1016 hPa 0 mm - - -
1788022150 24.44° C 33% 1016 hPa 0 mm - - -
1788021850 24.44° C 32% 1016 hPa 0 mm - - -
1788021550 24.44° C 32% 1016 hPa 0 mm - - -

* Rain latest hour (hover to see other rain measurements)
** Current wind speed in m/s (hover to see current wind gust speed)